Steamboat Springs, CO

9:58 AM MST on February 23, 2017 (GMT -0700)
Mount Werner

Weather History for K3MW - September, 2012

Change the Weather History Date:

Wednesday, September 5, 2012

  Actual Average (KSBS) Record (KSBS)
Temperature  
Mean Temperature 59 °F -  
Max Temperature 68 °F 78 °F 90 °F (1978)
Min Temperature 50 °F 35 °F 23 °F (1956)
Degree Days  
Heating Degree Days 6    
Growing Degree Days 9 (Base 50)    
Moisture  
Dew Point -3 °F    
Average Humidity 11    
Maximum Humidity 20    
Minimum Humidity 4    
Precipitation  
Precipitation 0.00 in - - ()
Sea Level Pressure  
Sea Level Pressure 30.52 in    
Wind  
Wind Speed 5 mph (SW)    
Max Wind Speed 17 mph    
Max Gust Speed 25 mph    
Visibility 10 miles    
Events      
Averages and records for this station are not official NWS values.
T = Trace of Precipitation, MM = Missing Value Source: NWS Daily Summary

Daily Weather History Graph

Daily Weather History Graph

Search for Another Location

Airport or City:

Trip Planner

Search our weather history database for the weather conditions in past years. The results will help you decide how hot, cold, wet, or windy it might be!

Date:

Astronomy

Sep. 05, 2012 Rise Set
Actual Time 6:38 AM MDT 7:31 PM MDT
Civil Twilight 6:10 AM MDT 7:59 PM MDT
Nautical Twilight 5:37 AM MDT 8:32 PM MDT
Astronomical Twilight 5:03 AM MDT 9:06 PM MDT
Moon 10:02 PM MDT (9/5) 11:46 AM MDT (9/5)
Length of Visible Light 13h 48m
Length of Day
12h 52m
Waning Gibbous, 75% of the Moon is Illuminated
Sep 5
Waning Gibbous
Sep 8
Last Quarter
Sep 15
New
Sep 22
First Quarter
Sep 29
Full

Hourly Weather History & Observations

Time (MDT) Temp. Dew Point Humidity Pressure Visibility Wind Dir Wind Speed Gust Speed Precip Events Conditions
12:15 AM 55.4 °F -0.4 °F 10% 30.54 in 10.0 mi WNW 3.5 mph - N/A   Clear
12:35 AM 53.6 °F 1.4 °F 12% 30.54 in 10.0 mi WNW 3.5 mph - N/A   Clear
12:55 AM 53.6 °F 1.4 °F 12% 30.54 in 10.0 mi Calm Calm - N/A   Clear
1:15 AM 53.6 °F 1.4 °F 12% 30.54 in 10.0 mi Calm Calm - N/A   Clear
1:35 AM 53.6 °F 1.4 °F 12% 30.54 in 10.0 mi Calm Calm - N/A   Clear
1:55 AM 53.6 °F 3.2 °F 13% 30.53 in 10.0 mi Calm Calm - N/A   Clear
2:15 AM 51.8 °F 3.2 °F 14% 30.53 in 10.0 mi Calm Calm - N/A   Clear
2:35 AM 51.8 °F 5.0 °F 15% 30.53 in 10.0 mi SW 3.5 mph - N/A   Clear
2:55 AM 51.8 °F 5.0 °F 15% 30.53 in 10.0 mi WSW 4.6 mph - N/A   Clear
3:15 AM 51.8 °F 5.0 °F 15% 30.53 in 10.0 mi SW 3.5 mph - N/A   Clear
3:35 AM 51.8 °F 5.0 °F 15% 30.53 in 10.0 mi SW 3.5 mph - N/A   Clear
3:55 AM 51.8 °F 5.0 °F 15% 30.53 in 10.0 mi Calm Calm - N/A   Clear
4:15 AM 51.8 °F 8.6 °F 18% 30.53 in 10.0 mi SW 4.6 mph - N/A   Clear
4:35 AM 51.8 °F 8.6 °F 18% 30.53 in 10.0 mi Calm Calm - N/A   Clear
4:55 AM 51.8 °F 8.6 °F 18% 30.52 in 10.0 mi Calm Calm - N/A   Clear
5:15 AM 51.8 °F 8.6 °F 18% 30.52 in 10.0 mi Calm Calm - N/A   Clear
5:35 AM 51.8 °F 8.6 °F 18% 30.53 in 10.0 mi Calm Calm - N/A   Clear
5:55 AM 51.8 °F 8.6 °F 18% 30.53 in 10.0 mi Calm Calm - N/A   Clear
6:15 AM 51.8 °F 8.6 °F 18% 30.53 in 10.0 mi Calm Calm - N/A   Clear
6:35 AM 50.0 °F 10.4 °F 20% 30.53 in 10.0 mi South 3.5 mph - N/A   Clear
6:55 AM 50.0 °F 10.4 °F 20% 30.53 in 10.0 mi Calm Calm - N/A   Clear
7:15 AM 50.0 °F 10.4 °F 20% 30.53 in 10.0 mi South 3.5 mph - N/A   Clear
7:35 AM 50.0 °F 8.6 °F 19% 30.54 in 10.0 mi Calm Calm - N/A   Clear
7:55 AM 50.0 °F 8.6 °F 19% 30.54 in 10.0 mi Calm Calm - N/A   Clear
8:15 AM 51.8 °F 10.4 °F 19% 30.55 in 10.0 mi SSE 3.5 mph - N/A   Clear
8:35 AM 53.6 °F 12.2 °F 19% 30.55 in 10.0 mi SSE 3.5 mph - N/A   Clear
8:55 AM 55.4 °F 12.2 °F 18% 30.55 in 10.0 mi South 3.5 mph - N/A   Clear
9:15 AM 57.2 °F 10.4 °F 16% 30.55 in 10.0 mi SSW 4.6 mph - N/A   Clear
9:35 AM 59.0 °F 10.4 °F 15% 30.55 in 10.0 mi SSW 4.6 mph - N/A   Clear
9:55 AM 59.0 °F 12.2 °F 16% 30.55 in 10.0 mi SSW 5.8 mph - N/A   Clear
10:15 AM 59.0 °F 8.6 °F 14% 30.55 in 10.0 mi SSW 8.1 mph - N/A   Clear
10:35 AM 60.8 °F 8.6 °F 13% 30.56 in 10.0 mi SSW 5.8 mph - N/A   Clear
10:55 AM 60.8 °F 10.4 °F 14% 30.55 in 10.0 mi SW 8.1 mph - N/A   Clear
11:15 AM 62.6 °F 10.4 °F 13% 30.55 in 10.0 mi SSW 6.9 mph - N/A   Clear
11:35 AM 62.6 °F 10.4 °F 13% 30.55 in 10.0 mi SSW 8.1 mph - N/A   Clear
11:55 AM 62.6 °F 8.6 °F 12% 30.55 in 10.0 mi SW 10.4 mph 17.3 mph N/A   Clear
12:15 PM 64.4 °F 6.8 °F 10% 30.54 in 10.0 mi SW 13.8 mph 18.4 mph N/A   Clear
12:35 PM 64.4 °F -0.4 °F 7% 30.54 in 10.0 mi WSW 9.2 mph 17.3 mph N/A   Clear
12:55 PM 64.4 °F -2.2 °F 7% 30.53 in 10.0 mi SW 9.2 mph 17.3 mph N/A   Clear
1:15 PM 66.2 °F -7.6 °F 5% 30.52 in 10.0 mi SW 10.4 mph 19.6 mph N/A   Clear
1:35 PM 68.0 °F -11.2 °F 4% 30.52 in 10.0 mi SW 11.5 mph 20.7 mph N/A   Clear
1:55 PM 68.0 °F -9.4 °F 4% 30.51 in 10.0 mi SW 17.3 mph 25.3 mph N/A   Clear
2:15 PM 68.0 °F -11.2 °F 4% 30.51 in 10.0 mi SW 10.4 mph 20.7 mph N/A   Clear
2:35 PM 68.0 °F -18.4 °F 4% 30.50 in 10.0 mi SW 16.1 mph 25.3 mph N/A   Clear
2:55 PM 68.0 °F -20.2 °F 4% 30.50 in 10.0 mi SW 12.7 mph 21.9 mph N/A   Clear
3:15 PM 68.0 °F -27.4 °F 4% 30.50 in 10.0 mi SW 12.7 mph 20.7 mph N/A   Clear
3:35 PM 64.4 °F -32.8 °F 4% 30.50 in 10.0 mi SW 10.4 mph 25.3 mph N/A   Clear
3:55 PM 68.0 °F -23.8 °F 4% 30.49 in 10.0 mi SW 11.5 mph 21.9 mph N/A   Clear
4:15 PM 66.2 °F -25.6 °F 4% 30.48 in 10.0 mi SW 12.7 mph 20.7 mph N/A   Clear
4:35 PM 66.2 °F -27.4 °F 4% 30.48 in 10.0 mi SW 12.7 mph 24.2 mph N/A   Clear
4:55 PM 68.0 °F -27.4 °F 4% 30.48 in 10.0 mi WSW 10.4 mph 23.0 mph N/A   Clear
5:15 PM 66.2 °F -32.8 °F 4% 30.48 in 10.0 mi SW 13.8 mph 21.9 mph N/A   Clear
5:35 PM 64.4 °F -27.4 °F 4% 30.48 in 10.0 mi SW 13.8 mph 23.0 mph N/A   Clear
5:55 PM 64.4 °F -22.0 °F 4% 30.48 in 10.0 mi SW 11.5 mph 20.7 mph N/A   Clear
6:15 PM 62.6 °F -27.4 °F 4% 30.48 in 10.0 mi WSW 10.4 mph 16.1 mph N/A   Clear
6:35 PM 62.6 °F -23.8 °F 4% 30.48 in 10.0 mi SW 11.5 mph 20.7 mph N/A   Clear
6:55 PM 60.8 °F -18.4 °F 4% 30.48 in 10.0 mi SW 11.5 mph 19.6 mph N/A   Clear
7:15 PM 60.8 °F -13.0 °F 5% 30.48 in 10.0 mi SW 9.2 mph 20.7 mph N/A   Clear
7:35 PM 59.0 °F -14.8 °F 5% 30.48 in 10.0 mi SW 11.5 mph 20.7 mph N/A   Clear
7:55 PM 57.2 °F -13.0 °F 5% 30.48 in 10.0 mi SW 11.5 mph 16.1 mph N/A   Clear
8:15 PM 57.2 °F -13.0 °F 5% 30.48 in 10.0 mi SW 11.5 mph 16.1 mph N/A   Clear
8:35 PM 55.4 °F -11.2 °F 6% 30.48 in 10.0 mi SW 10.4 mph 16.1 mph N/A   Clear
8:55 PM 55.4 °F -9.4 °F 7% 30.48 in 10.0 mi SW 10.4 mph 19.6 mph N/A   Clear
9:15 PM 55.4 °F -9.4 °F 7% 30.48 in 10.0 mi SW 6.9 mph - N/A   Clear
9:35 PM 55.4 °F -7.6 °F 7% 30.48 in 10.0 mi SW 6.9 mph - N/A   Clear
9:55 PM 53.6 °F -5.8 °F 9% 30.48 in 10.0 mi SSW 4.6 mph - N/A   Clear
10:15 PM 53.6 °F -5.8 °F 9% 30.48 in 10.0 mi SSW 5.8 mph - N/A   Clear
10:35 PM 53.6 °F -5.8 °F 9% 30.48 in 10.0 mi SSW 5.8 mph - N/A   Clear
10:55 PM 53.6 °F -2.2 °F 10% 30.49 in 10.0 mi SW 6.9 mph - N/A   Clear
11:15 PM 53.6 °F -4.0 °F 9% 30.49 in 10.0 mi SW 5.8 mph - N/A   Clear
11:35 PM 53.6 °F -5.8 °F 9% 30.50 in 10.0 mi SW 3.5 mph - N/A   Clear
11:55 PM 53.6 °F -5.8 °F 9% 30.50 in 10.0 mi Calm Calm - N/A   Clear